Pleasanton, CA

12:09 PM PST on February 08, 2016 (GMT -0800)
Livermore Municipal

Weather History for KLVK - April, 2012

Change the Weather History Date:

Thursday, April 26, 2012

  Actual Average Record
Temperature  
Mean Temperature 55 °F 59 °F  
Max Temperature 63 °F 71 °F 93 °F (2004)
Min Temperature 47 °F 46 °F 35 °F (1964)
Degree Days  
Heating Degree Days 10 7  
Month to date heating degree days 206 235  
Since 1 July heating degree days 2471 2599  
Cooling Degree Days 0 1  
Month to date cooling degree days 23 1  
Year to date cooling degree days 23 2  
Growing Degree Days 6 (Base 50)    
Moisture  
Dew Point 47 °F    
Average Humidity 65    
Maximum Humidity 86    
Minimum Humidity 43    
Precipitation  
Precipitation 0.05 in 0.03 in 0.44 in (1979)
Month to date precipitation 1.84 0.92  
Year to date precipitation 6.95 9.16  
Since 1 July precipitation 8.86  
Sea Level Pressure  
Sea Level Pressure 29.98 in    
Wind  
Wind Speed 12 mph (WSW)    
Max Wind Speed 24 mph    
Max Gust Speed 29 mph    
Visibility 9 miles    
Events Rain    
T = Trace of Precipitation, MM = Missing Value Source: NWS Daily Summary

Daily Weather History Graph

Daily Weather History Graph

Search for Another Location

Airport or City:

Trip Planner

Search our weather history database for the weather conditions in past years. The results will help you decide how hot, cold, wet, or windy it might be!

Date:

Astronomy

Apr. 26, 2012 Rise Set
Actual Time 6:16 AM PDT 7:53 PM PDT
Civil Twilight 5:49 AM PDT 8:21 PM PDT
Nautical Twilight 5:15 AM PDT 8:55 PM PDT
Astronomical Twilight 4:40 AM PDT 9:30 PM PDT
Moon 10:03 AM PDT (4/26) 12:00 AM PDT (4/26)
Length of Visible Light 14h 32m
Length of Day
13h 36m
Waxing Crescent, 25% of the Moon is Illuminated
Apr 26
Waxing Crescent
Apr 29
First Quarter
May 5
Full
May 12
Last Quarter
May 20
New

Hourly Weather History & Observations

Time (PDT) Temp. Dew Point Humidity Pressure Visibility Wind Dir Wind Speed Gust Speed Precip Events Conditions
12:53 AM 57.9 °F 55.0 °F 90% 29.78 in 10.0 mi Calm Calm - 0.00 in   Mostly Cloudy
1:53 AM 57.9 °F 54.0 °F 87% 29.77 in 10.0 mi SW 6.9 mph - N/A   Partly Cloudy
2:53 AM 57.9 °F 55.0 °F 90% 29.81 in 8.0 mi West 15.0 mph 23.0 mph 0.01 in Rain Light Rain
3:01 AM 55.4 °F 53.6 °F 94% 29.82 in 3.0 mi West 17.3 mph - 0.02 in Rain Rain
3:53 AM 55.9 °F 54.0 °F 93% 29.82 in 10.0 mi West 3.5 mph - 0.03 in   Overcast
4:53 AM 57.0 °F 54.0 °F 89% 29.83 in 10.0 mi WSW 3.5 mph - N/A   Overcast
5:43 AM 55.4 °F 53.6 °F 94% 29.84 in 8.0 mi WSW 6.9 mph - N/A   Overcast
5:53 AM 55.9 °F 54.0 °F 93% 29.84 in 7.0 mi West 9.2 mph - 0.01 in Rain Light Rain
6:03 AM 55.4 °F 53.6 °F 94% 29.84 in 8.0 mi West 9.2 mph - 0.00 in   Overcast
6:37 AM 55.4 °F 53.6 °F 94% 29.85 in 10.0 mi WSW 5.8 mph - 0.00 in   Overcast
6:53 AM 55.9 °F 53.1 °F 90% 29.85 in 10.0 mi West 6.9 mph - 0.00 in   Mostly Cloudy
7:40 AM 55.4 °F 50.0 °F 82% 29.88 in 10.0 mi West 11.5 mph - N/A   Mostly Cloudy
7:53 AM 55.9 °F 50.0 °F 80% 29.88 in 10.0 mi WSW 10.4 mph - N/A   Mostly Cloudy
8:53 AM 57.0 °F 50.0 °F 77% 29.89 in 10.0 mi WSW 15.0 mph 19.6 mph N/A   Mostly Cloudy
9:53 AM 54.0 °F 50.0 °F 86% 29.94 in 8.0 mi West 18.4 mph 26.5 mph 0.00 in Rain Light Rain
10:53 AM 53.1 °F 48.0 °F 83% 29.97 in 7.0 mi West 15.0 mph 23.0 mph 0.00 in   Overcast
11:23 AM 55.4 °F 46.4 °F 72% 29.98 in 10.0 mi WSW 15.0 mph - N/A   Overcast
11:53 AM 55.9 °F 46.0 °F 69% 30.00 in 10.0 mi West 16.1 mph - N/A   Overcast
12:53 PM 59.0 °F 43.0 °F 55% 30.01 in 10.0 mi WSW 17.3 mph 25.3 mph 0.00 in   Overcast
1:53 PM 61.0 °F 42.1 °F 50% 30.04 in 10.0 mi West 20.7 mph 27.6 mph N/A   Mostly Cloudy
2:53 PM 62.1 °F 41.0 °F 46% 30.06 in 10.0 mi WSW 16.1 mph - N/A   Scattered Clouds
3:53 PM 62.1 °F 39.9 °F 44% 30.07 in 10.0 mi WSW 18.4 mph - N/A   Scattered Clouds
4:53 PM 61.0 °F 39.9 °F 46% 30.09 in 10.0 mi WSW 17.3 mph 23.0 mph N/A   Clear
5:53 PM 59.0 °F 41.0 °F 51% 30.11 in 10.0 mi West 19.6 mph 24.2 mph N/A   Clear
5:59 PM 59.0 °F 42.8 °F 55% 30.11 in 10.0 mi West 17.3 mph - N/A   Partly Cloudy
6:01 PM 59.0 °F 42.8 °F 55% 30.11 in 10.0 mi West 17.3 mph - N/A   Partly Cloudy
6:53 PM 55.9 °F 41.0 °F 57% 30.13 in 10.0 mi West 15.0 mph - N/A   Partly Cloudy
7:53 PM 53.1 °F 41.0 °F 64% 30.15 in 10.0 mi West 10.4 mph - N/A   Clear
8:53 PM 52.0 °F 42.1 °F 69% 30.16 in 10.0 mi West 10.4 mph - N/A   Clear
9:53 PM 51.1 °F 43.0 °F 74% 30.19 in 10.0 mi SW 3.5 mph - N/A   Clear
10:53 PM 50.0 °F 43.0 °F 77% 30.19 in 10.0 mi SW 5.8 mph - N/A   Clear
11:53 PM 48.9 °F 42.1 °F 77% 30.20 in 10.0 mi WSW 4.6 mph - N/A   Clear